Regional Weather Roundup
Issued by NWS

Home | Current Version | Previous Version | Text Only | Print | Product List | Glossary Off
Versions: 1 2 3 4 5 6 7 8 9 10 11 12 13 14 15 16 17 18 19 20 21 22 23 24 25 26 27 28 29 30 31 32 33 34 35 36 37 38 39 40 41 42 43 44 45 46 47 48 49 50

000
ASUS43 KDMX 020907
RWRIA

WEATHER ROUNDUP FOR IOWA
NATIONAL WEATHER SERVICE DES MOINES IA
400 AM CDT THU APR 02 2015

NOTE: "FAIR" INDICATES FEW OR NO CLOUDS BELOW 12,000 FEET WITH NO
SIGNIFICANT WEATHER AND/OR OBSTRUCTIONS TO VISIBILITY.

* - THESE STATIONS ARE NOT NWS STATIONS...THUS NOT UNDER NWS
QUALITY CONTROL.  THEY ALSO DO NOT REPORT WEATHER SUCH
AS PRECIPITATION OR FOG.

IAZ001>003-012>014-020>022-031>034-043>046-021000-
   NORTHWEST IOWA

CITY           SKY/WX    TMP DP  RH WIND       PRES   REMARKS
CARROLL *      DRIZZLE   54  50  87 N10G17    29.72F
CHEROKEE *     CLOUDY    50  41  71 N9        29.75S
DENISON *      CLOUDY    54  50  87 N8        29.69F
LE MARS *      CLEAR     50  37  62 N8        29.77F
ORANGE CITY *  CLEAR     52  34  50 N7        29.77F
SHELDON *      CLEAR     46  39  76 NW8       29.76F
SIOUX CITY     CLOUDY    53  36  52 N13       29.75F
SPENCER        CLOUDY    48  40  73 N10       29.75F
STORM LAKE *   PTCLDY    50  41  71 N15       29.76S
$$

IAZ055>058-069>071-079>083-090>094-021000-
   SOUTHWEST IOWA

CITY           SKY/WX    TMP DP  RH WIND       PRES   REMARKS
ATLANTIC *     LGT RAIN  54  54 100 N13       29.70F
AUDUBON *      LGT RAIN  54  50  87 N9        29.72F
CLARINDA *     HVY RAIN  55  54  94 N21G35    29.67F
COUNCIL BLFS * MOCLDY    54  54 100 NE3       29.72R
CRESTON *      RAIN      55  55 100 NW16G23   29.72S
HARLAN  *      DRIZZLE   54  54 100 NE8       29.73F
LAMONI         LGT RAIN  57  54  89 N13       29.69F
RED OAK *      CLOUDY    55  54  94 N12G20    29.71F
SHENANDOAH *   LGT RAIN  55  54  94 N13       29.73R
$$

IAZ047>049-059>061-072>074-084-021000-
   CENTRAL IOWA

CITY           SKY/WX    TMP DP  RH WIND       PRES   REMARKS
AMES           HVY RAIN  56  53  90 NW26G33   29.68R FOG
ANKENY *       RAIN      57  55  94 NW13G23   29.70R
CHARITON *     LGT RAIN  57  55  94 W16       29.73R
DES MOINES     HVY RAIN  58  54  86 NW17      29.70R FOG
GRINNELL*      CLOUDY    55  54  94 CALM      29.66S
KNOXVILLE *    CLOUDY    57  55  94 W10       29.69R
MARSHALLTOWN   CLOUDY    56  54  93 NW15      29.65R
PELLA *        CLOUDY    57  57 100 W8        29.69R
PERRY *        LGT RAIN  54  52  94 NW13      29.73R
$$

IAZ004>006-015-016-023>025-035-036-021000-
   NORTH CENTRAL IOWA

CITY           SKY/WX    TMP DP  RH WIND       PRES   REMARKS
ALGONA *       CLOUDY    52  43  71 N10       29.74S
CLARION *      LGT RAIN  52  50  93 N15G22    29.71F
ESTHERVILLE    CLOUDY    48  39  71 NW14      29.74S
FORT DODGE *   CLOUDY    52  43  71 N8        29.74S
MASON CITY     LGT RAIN  52  49  89 NW15      29.72R
FOREST CITY *  RAIN      48  45  87 NW10      29.72R
IOWA FALLS *   HVY RAIN  54  52  94 NW22      29.71R
$$

IAZ007>011-017>019-026>030-037>042-050>054-066-021000-
   NORTHEAST IOWA

CITY           SKY/WX    TMP DP  RH WIND       PRES   REMARKS
CEDAR RAPIDS   LGT RAIN  55  55 100 S5        29.64F FOG
CHARLES CITY * RAIN      55  55 100 NW17      29.68R
CLINTON *      MOCLDY    55  43  62 S9        29.68S
DECORAH *      CLOUDY    55  48  76 W6        29.64R
DUBUQUE        CLOUDY    52  42  69 E3        29.66F
MONTICELLO *   CLOUDY    54  46  76 CALM      29.65S
OELWEIN *      RAIN      54  52  94 W12       29.68R
WATERLOO       CLOUDY    56  56 100 W3        29.66S
$$

IAZ064-065-067-068-078-021000-
   EAST CENTRAL IOWA

CITY           SKY/WX    TMP DP  RH WIND       PRES   REMARKS
DAVENPORT      MOCLDY    60  49  66 S14G22    29.66F
IOWA CITY      CLOUDY    60  52  74 SW8       29.67R
MT. PLEASANT * CLOUDY    59  54  82 S14       29.65S
MUSCATINE *    CLOUDY    61  54  77 S15G21    29.64S
QUAD CITIES    MOCLDY    59  51  75 S14G21    29.64F
$$

IAZ062-063-075>077-085>089-095>099-021000-
   SOUTHEAST IOWA

CITY           SKY/WX    TMP DP  RH WIND       PRES   REMARKS
BURLINGTON     MOCLDY    58  55  90 S14       29.65F
FAIRFIELD *    CLOUDY    61  55  82 SW14      29.66R
FORT MADISON * MOCLDY    57  54  88 S9        29.66S
KEOKUK *       MOCLDY    61  55  82 S14G20    29.65S
OSKALOOSA *    RAIN      57  55  94 W6        29.66S
CENTERVILLE *  RAIN      57  57 100 W13       29.72R
OTTUMWA        CLOUDY    57  55  93 W5        29.66S
WASHINGTON *   CLOUDY    61  59  94 SW15G23   29.65R
$$

ABBREVIATIONS USED IN REMARKS
   TC - TEMPERATURES IN CELSIUS
  WCI - WIND CHILL INDEX
   HX - HEAT INDEX
  VSB - VISIBILITY
$$



USA.gov is the U.S. government's official web portal to all federal, state and local government web resources and services.